Location: Brunembert
(50.7122°N, 1.8935°E)
Time: 10:02:24
(UTC+00:00)

USA 215 - Pass Details

Date: 22 April 2021
Orbit: 1101 x 1107 km, 123.0° (Epoch: 02 May)

Event Time Altitude Azimuth Distance (km) Brightness Sun altitude
Exits shadow 21:21:36 30° 140° (SE) 1,854 3.9 -18.9°
Maximum altitude 21:25:02 70° 216° (SW) 1,168 3.3 -19.3°
Drops below altitude 10° 21:31:34 10° 300° (WNW) 2,965 6.5 -19.9°
Sets 21:34:05 0° 303° (WNW) 3,925 7.4 -20.1°
